LogoCoinalyze
    Ad-Free Version Home Markten Financieringspercentages
    Futures data
    • Aggregated data (Munten)
    • Individuele grafieken
    • Globale grafieken
    Meldingen
    TA
    Bitcoin Ethereum BNB Ripple Tron ZCash Dogecoin Monero Chainlink UNUS SED LEO Cardano Stellar Lumens Bitcoin Cash Litecoin Hedera Cronos Polkadot Ethereum Classic Algorand Cosmos Quant Dash VeChain Bitcoin SV BitTorrent Terra Decred Tezos Iota The Graph THETA Decentraland NEO Chiliz MultiversX Horizen Golem Basic Attention Token Qtum DigiByte 0x Beam RIF Token FTX Token Holo FUNToken Zilliqa Ontology aelf Nano Enjin Coin Ravencoin Mask Network Verge Siacoin Status WINk Waves IoTeX iExec RLC Power Ledger Steem Kyber Network Crystal Lisk Ark WOO Network Ardor IOST WAX Icon Storj Wanchain Loopring Bitcoin Diamond Augur AdEx Bitcoin Gold OmiseGO NEM MonaCoin BitShares Ren Komodo V Systems Nuls Mithril SOLVE EOS Aion Nebulas Maker HedgeTrade Bread Fetch.ai TomoChain Polygon Fantom Waltonchain GXChain Bytom Metaverse ETP MaidSafeCoin QASH
    Rangschikken op:
    Meer
    • API
    • Candlestick-patronen
    • Doneer
    • Contact
    • Sitemap
    • Privacy Policy
    • Disclaimer
    • Theme:
    Nederlands
    • English
    • Français
    • Русский
    • Deutsch
    • Türkçe
    • Português (BR)
    • Español
    • 한국어
    • 简体中文
    • 日本語
     
    Aanmelden / Registreren
    Markets/ Pepe/ PEPE naar USD/ PEPEUSD Coinbase
    Trades
    WL
    Chat
    Stats
    Nieuws
    ⦷
    AAA
    0.00000367 435.00000000 23:14:25
    0.00000366 32141570.00000000 23:14:21
    0.00000366 1072309.00000000 23:14:17
    0.00000366 176095328.00000000 23:14:17
    0.00000366 263872490.00000000 23:14:17
    0.00000366 12017645.00000000 23:14:17
    0.00000366 47039306.00000000 23:14:17
    0.00000366 159634.00000000 23:14:09
    0.00000366 76289033.00000000 23:14:05
    0.00000366 30900000.00000000 23:13:58
    0.00000366 30900000.00000000 23:13:58
    0.00000366 1292125.00000000 23:13:46
    0.00000366 5774.00000000 23:13:46
    0.00000366 70339030.00000000 23:13:46
    0.00000366 154062566.00000000 23:13:46
    0.00000366 329758487.00000000 23:13:46
    0.00000366 206035947.00000000 23:13:46
    0.00000366 102700000.00000000 23:13:45
    0.00000366 107264053.00000000 23:13:26
    0.00000366 3771369.00000000 23:13:26
    0.00000366 3008002.00000000 23:12:41
    0.00000366 18.00000000 23:12:41
    0.00000366 160604.00000000 23:12:41
    0.00000366 2081172.00000000 23:10:19
    0.00000367 7013624.00000000 23:09:22
    0.00000367 3715367.00000000 23:09:10
    0.00000367 329700.00000000 23:09:00
    0.00000367 30900000.00000000 23:08:55
    0.00000367 47198940.00000000 23:08:51
    0.00000367 37420211.00000000 23:08:51
    0.00000367 64917453.00000000 23:08:47
    0.00000367 329101.00000000 23:08:45
    0.00000367 35145735.00000000 23:08:42
    0.00000367 47198940.00000000 23:08:23
    0.00000367 198445.00000000 23:07:27
    0.00000367 14873978.00000000 23:04:16
    0.00000367 2697548.00000000 23:04:11
    0.00000367 47198940.00000000 23:04:00
    0.00000367 21992041.00000000 23:03:06
    0.00000367 544959.00000000 23:03:05
    0.00000367 22537000.00000000 23:02:57
    0.00000367 1366121.00000000 23:02:53
    0.00000367 45133826.00000000 23:02:50
    0.00000367 22537000.00000000 23:02:50
    0.00000367 10600755.00000000 23:02:48
    0.00000366 467314.00000000 23:02:30
    0.00000367 23727779.00000000 23:02:05
    0.00000367 4003014.00000000 23:02:03
    0.00000367 665235.00000000 23:01:38
    0.00000367 160670665.00000000 23:01:33
    0.00000367 183897759.00000000 23:01:33
    0.00000367 137812500.00000000 23:01:33
    0.00000367 47198940.00000000 23:01:33
    0.00000367 30900000.00000000 23:01:22
    0.00000367 111111781.00000000 23:01:22
    0.00000367 20080937.00000000 23:01:04
    0.00000367 6619782.00000000 23:00:57
    0.00000367 10859534.00000000 23:00:17
    0.00000367 528719.00000000 22:59:56
    0.00000367 269750.00000000 22:59:29
    0.00000367 8509847.00000000 22:59:02
    0.00000367 47198940.00000000 22:58:46
    0.00000367 137812500.00000000 22:58:11
    0.00000367 30900000.00000000 22:58:11
    0.00000367 12068506.00000000 22:57:57
    0.00000367 9185828.00000000 22:57:50
    0.00000367 30900000.00000000 22:57:47
    0.00000367 168706723.00000000 22:57:44
    0.00000367 18.00000000 22:57:44
    0.00000367 26337193.00000000 22:57:29
    0.00000366 20007380.00000000 22:57:14
    0.00000366 287356.00000000 22:56:46
    0.00000366 349650.00000000 22:56:37
    0.00000366 13130814.00000000 22:56:19
    0.00000366 8741259.00000000 22:56:00
    0.00000366 5458515.00000000 22:55:52
    0.00000366 120296811.00000000 22:55:52
    0.00000366 10493379.00000000 22:55:52
    0.00000366 84232577.00000000 22:55:52
    0.00000366 331398419.00000000 22:55:52
    0.00000366 369004.00000000 22:55:43
    0.00000366 10540900.00000000 22:55:10
    0.00000366 148361349.00000000 22:55:10
    0.00000366 96009631.00000000 22:55:10
    0.00000366 102700000.00000000 22:55:10
    0.00000366 142551281.00000000 22:55:10
    0.00000366 130790190.00000000 22:55:09
    0.00000366 177304964.00000000 22:55:09
    0.00000366 5449591.00000000 22:55:09
    0.00000366 177304964.00000000 22:55:09
    0.00000366 5448106.00000000 22:55:09
    0.00000366 416000000.00000000 22:55:09
    0.00000366 18.00000000 22:55:09
    0.00000366 301000.00000000 22:55:09
    0.00000366 23923794.00000000 22:55:09
    0.00000366 82988706.00000000 22:55:09
    0.00000366 30900000.00000000 22:55:09
    0.00000367 22339805.00000000 22:54:28
    0.00000367 23526340.00000000 22:54:18
    0.00000367 30900000.00000000 22:54:17
    Afmelden
    AAA
    Help
    🙂 🤣 😎 🤗 😛 😉 😜 🤑 🤔 😑 😴 😕 🙃 😲 😇 🙁 😢 😬 😟 😠 🕺 🏃 💪 ✌ 👌 👍 👎 👏 👋 🤝 🍺 🍻 🐋 🐟 🦈 🗽 🚄 ✈ 🛑 🚀 🏦 🌚 ⭐ 🌞 ⚡ 🏆 💰 💲 🔨 ❓ ❗ 💯 🔶 🏁
    ☺
    Aanmelden of Registreren en chat
    24 Uur
    Verandering
    +7.62%
    Volume
    1,249,072,239,029
    Hoog
    0.00000388
    Laag
    0.00000339
    7 Dagen
    Verandering
    -4.68%
    Volume
    4,640,457,027,232
    Hoog
    0.00000401
    Laag
    0.00000336
    30 Dagen
    Verandering
    +26.55%
    Volume
    21,216,088,113,467
    Hoog
    0.00000456
    Laag
    0.00000253
    DOGE, SHIB, PEPE, or Something Else: Which Meme Coin Can Make History in September? (3 AIs Weigh In)
    "DOGE remains the most likely to record the largest move in dollar terms and lead the entire sector," ChatGPT stated.
    cryptopotato.com
    Sept 3, 2026 00:41
    Pepe price rallies 25% as whale demand and futures interest surge
    Key takeaways Pepe has gained 25% this week, including a combined 22% advance over the previous two days. Seven whale transactions worth more than $1 million each occurred Thursday, the highest...
    coinjournal.net
    Aug 21, 2026 08:41
    PEPE Supply on Exchanges Just Took a Massive Hit – What’s Next?
    A drop in PEPE exchange balances has added to bullish expectations despite muted trader interest.
    cryptopotato.com
    Aug 6, 2026 20:02
    PEPE Exchange Outflows Hit Nearly 2-Year High as Whales Accumulate
    Pepe (PEPE) recorded its largest single-day exchange outflow since November 2024, with 4.54 trillion tokens leaving trading platforms, signaling that holders are moving supply away from immediate...
    beincrypto.com
    Aug 6, 2026 04:57
    Meme Coin Based on White House Shooter Conspiracy Rallies 320%
    $HENRY surged 300% after a 2023 Pepe tweet appeared to name the White House shooter, fueling a viral time-travel meme. The post Meme Coin Based on White House Shooter Conspiracy Rallies 320%...
    beincrypto.com
    Apr 27, 2026 16:11
    PEPE surges 4% as market sentiment improves, eyes Key resistance breakout
    Key takeaways Pepe extends gains on Wednesday, stretching its rally from the 50-day EMA. Derivatives data show heightened retail activity as risk-on sentiment returns to the market. Pepe (PEPE) is...
    coinjournal.net
    Apr 22, 2026 11:44
    Why The PEPE Price Could Stage A 55X Rally To Reach New $0.0001 ATH
    The PEPE price has now started to edge back into bullish conversations after the recent inflows into the crypto market. The last time PEPE’s weekly chart printed the kind of structure now...
    newsbtc.com
    Apr 21, 2026 15:30
    Pepe (PEPE) surges 9%, drawing interest from whales
    Key takeaways PEPE is up 9% in the last 24 hours, making it one of the best performers among the top 50 cryptocurrencies by market cap. The rally comes amid renewed interest from whales and retail...
    coinjournal.net
    Apr 16, 2026 07:40
    Murad Says SPX6900 (SPX) Is Primed for a Rally — Is He Right This Time?
    Crypto influencer Murad Mahmudov claims SPX6900 (SPX) is stabilizing at the same market cap level where Dogecoin (DOGE) and Pepe (PEPE) consolidated before their explosive rallies. The...
    beincrypto.com
    Apr 5, 2026 21:36
    The Shiba Inu Of This Cycle: Analyst Shares Why It Is Better To Buy PEPE Now
    In the bull market cycle of 2021-2022, the Shiba Inu meme coin made waves in a way that changed the face of meme coins forever. This came after Dogecoin’s initial 36,000% rally, and Shiba Inu...
    newsbtc.com
    Apr 4, 2026 07:30
    PEPE Explodes by 18% Amid Altcoin Rally, BTC Tapped $74K: Market Watch
    The frog-themed meme coin is today's biggest gainer, followed by TAO, DOT, and BONK.
    cryptopotato.com
    Mar 16, 2026 10:56
    Should PEPE traders brace for volatility as short squeeze potential builds?
    The memecoin market has seen its collective market capitalization drop by 48% over the past year, and 6.9% over the past month, according to CoinMarketCap. According to Glassnode, the memecoin...
    ambcrypto.com
    Mar 7, 2026 18:00
    Typ de opdracht simpelweg in de chat. Vervang nick1 door de echte nick
    • /ignore nick1 Negeer een chatgebruiker
    • /unignore nick1 Een chatgebruiker niet meer negeren
    • /ignorelist Toon chatgebruikers die je negeert